User: anonymous   Login
Location: Unspecified
(0.0000°N, 0.0000°E)
Time: 10:35:21
(UTC+00:00)
Language:

NOSS 2-2 (D) - Orbit

View from above orbital plane
View from above orbital plane
View from above satellite
View from above satellite

Ground track
Ground track

The orbit data is extracted from the following two-line orbital elements,

1 21808U 91076D   18213.84291614 0.00000100  00000-0  26565-4 0    04
2 21808  63.3442 118.8816 0786000  29.4341 330.5659 13.41200236    03
Epoch (UTC): 01 August 2018 20:13:47
Eccentricity: 0.0786000
inclination: 63.3442°
perigee height: 516 km
apogee height: 1693 km
right ascension of ascending node: 118.8816°
argument of perigee: 29.4341°
revolutions per day: 13.41200236
mean anomaly at epoch: 330.5659°
orbit number at epoch: 0

The dashed part of the orbit path shows where the satellite is in the earth's shadow,  

DLR